Date,TemperatureHighF,TemperatureAvgF,TemperatureLowF,DewpointHighF,DewpointAvgF,DewpointLowF,HumidityHigh,HumidityAvg,HumidityLow,PressureMaxIn,PressureMinIn,WindSpeedMaxMPH,WindSpeedAvgMPH,GustSpeedMaxMPH,PrecipitationSumIn
2013-1-2,55,53,49,52,51,47,95,93,91,30.30,29.96,10,6,17,0.03
2013-1-3,56,52,48,53,50,45,95,91,87,30.50,30.33,7,4,12,0.03
2013-1-4,51,46,40,48,44,40,98,94,88,30.58,30.34,6,1,9,0.03
2013-1-5,54,49,42,50,47,41,98,93,86,30.39,30.18,5,2,13,0.03
2013-1-6,51,49,47,48,47,46,98,94,88,30.27,30.04,5,1,8,0.03
2013-1-7,54,52,48,52,51,47,97,94,92,30.01,29.96,5,2,9,0.03
2013-1-8,54,42,38,100,43,34,97,90,86,30.18,29.42,16,2,12,0.03
2013-1-10,45,40,32,44,39,31,98,97,95,30.07,29.83,13,3,13,0.11
2013-1-11,46,39,30,45,38,29,98,97,96,29.88,29.70,7,2,7,0.03
2013-1-12,46,43,38,45,40,34,98,91,80,29.94,29.67,13,5,13,0.03
2013-1-13,39,36,31,38,34,29,97,93,84,29.94,29.94,12,4,12,0.06
2013-1-14,43,40,36,40,38,34,97,92,84,29.94,29.77,16,8,16,0.06
2013-1-15,40,35,32,39,34,30,97,94,89,29.83,29.77,13,4,13,0.00
2013-1-16,43,41,40,42,39,36,96,91,86,29.83,29.62,13,5,13,0.19
2013-1-17,47,44,42,46,43,40,98,97,94,29.75,29.47,24,6,24,0.06
2013-1-18,42,38,36,41,37,36,99,97,93,29.47,29.12,25,12,25,1.27
2013-1-19,40,37,36,39,36,32,98,96,84,29.47,29.12,14,6,14,0.17
2013-1-20,38,37,37,33,32,30,85,81,74,29.47,29.27,15,8,15,0.00
2013-1-21,39,36,32,38,34,30,96,92,79,29.27,29.21,12,3,12,0.25
2013-1-22,38,32,27,38,31,26,98,97,96,29.23,29.23,5,0,5,0.06
2013-1-23,40,37,32,37,35,32,98,91,84,29.65,29.23,12,3,12,0.00
2013-1-24,42,39,36,40,37,34,94,91,89,29.84,29.65,16,3,16,0.00
2013-1-25,47,44,42,46,43,40,97,94,91,29.83,29.26,22,9,22,0.80
2013-1-26,54,44,35,51,42,34,97,93,84,29.54,28.92,25,7,25,0.03
2013-1-27,54,42,37,52,39,34,94,89,79,29.30,28.92,31,12,31,0.17
2013-1-28,52,45,37,47,40,34,92,84,75,29.41,29.02,30,13,30,0.06
2013-1-29,58,49,44,54,45,40,95,88,82,29.38,29.08,39,10,39,0.09
2013-1-30,49,45,42,44,41,38,91,85,69,29.73,29.26,26,12,26,0.22
2013-1-31,49,44,41,44,40,37,91,84,78,29.67,29.44,30,12,30,0.22
2013-2-1,46,42,36,43,38,32,90,85,77,29.69,29.36,31,11,31,0.00
2013-2-2,45,38,34,37,33,30,92,84,68,29.69,29.69,12,4,12,0.00
2013-2-3,53,48,41,50,46,37,97,93,85,29.95,29.69,22,10,22,0.08
2013-2-4,50,44,34,49,39,32,96,84,74,29.88,29.60,29,13,29,0.08
2013-2-5,45,39,32,41,35,30,92,87,81,29.62,29.34,33,13,33,0.03
2013-2-6,45,39,34,36,33,31,90,79,62,30.15,29.62,22,9,22,0.00
2013-2-7,45,38,33,44,36,30,96,93,89,30.73,30.15,14,6,14,0.19
2013-2-8,47,43,40,44,40,37,95,90,87,30.86,30.73,13,6,13,0.00
2013-2-9,52,45,41,48,44,40,97,93,84,30.82,30.52,10,4,10,0.11
2013-2-10,46,44,41,45,43,41,98,97,94,30.52,30.06,13,5,13,0.86
2013-2-11,42,40,39,41,39,37,98,95,88,30.49,30.06,11,4,11,0.14
2013-2-12,43,40,39,40,39,38,97,95,91,30.62,30.49,12,4,12,0.17
2013-2-13,54,47,42,52,46,40,97,95,90,30.62,30.48,17,6,17,0.28
2013-2-14,50,44,40,48,42,38,97,91,78,30.69,29.69,18,7,18,0.00
2013-2-15,51,43,37,44,39,36,97,89,72,30.87,30.69,11,3,11,0.00
2013-2-16,55,47,38,51,44,37,97,91,81,30.82,30.72,14,4,14,0.00
2013-2-17,50,46,43,45,42,37,93,88,80,30.76,30.68,21,8,21,0.00
2013-2-18,46,43,41,40,38,36,93,83,76,30.79,30.62,14,6,14,0.00
2013-2-19,47,40,32,41,37,30,96,89,80,30.85,30.69,8,3,8,0.00
2013-2-20,47,40,31,42,37,30,98,89,80,30.82,30.65,16,6,16,0.00
2013-2-21,40,38,36,34,31,29,81,77,71,30.78,30.73,20,7,20,0.00
2013-2-22,39,37,35,30,28,27,75,71,65,30.77,30.73,12,5,12,0.00
2013-2-23,39,37,35,34,30,27,86,78,68,30.77,30.77,14,4,14,0.00
2013-2-24,43,37,32,36,32,29,91,82,70,30.94,30.77,10,2,10,0.03
2013-2-25,46,39,32,38,34,29,92,83,68,31.16,30.94,8,2,8,0.00
2013-2-26,45,42,35,39,38,33,93,86,77,31.14,31.09,10,4,10,0.00
2013-2-27,48,43,40,41,38,36,89,84,75,31.22,31.12,9,3,9,0.00
2013-2-28,46,41,37,42,38,35,97,90,83,31.71,31.21,8,3,8,0.00
2013-3-1,50,43,34,45,39,32,97,87,72,31.84,31.61,12,2,12,0.00
2013-3-2,49,40,29,42,35,28,96,84,69,31.68,31.58,8,2,8,0.00
2013-3-3,50,43,39,42,38,36,89,83,66,31.59,31.45,9,2,9,0.00
2013-3-4,48,42,34,39,36,32,92,81,71,31.45,31.20,12,4,12,0.00
2013-3-5,50,40,30,43,37,29,95,89,74,31.35,31.03,9,3,9,0.00
2013-3-6,50,45,43,46,44,41,97,94,87,31.35,31.18,12,3,12,0.19
2013-3-7,48,46,45,47,45,44,98,98,97,31.18,31.18,13,6,13,0.39
2013-3-8,48,47,45,48,46,45,99,98,98,31.18,31.18,13,7,13,0.25
2013-3-9,46,44,40,45,43,39,98,98,96,31.25,31.18,15,6,15,0.14
2013-3-10,43,39,35,39,33,21,96,78,56,31.33,30.37,29,13,29,0.00
2013-3-11,39,34,32,30,23,19,84,63,55,30.50,30.37,26,12,26,0.00
2013-3-12,43,37,32,33,27,20,88,69,57,30.74,30.40,15,6,15,0.00
2013-3-13,48,38,31,40,34,29,94,84,63,31.62,30.40,16,6,16,0.03
2013-3-14,50,40,30,43,36,28,93,85,74,30.70,30.42,18,6,18,0.03
2013-3-15,52,44,35,43,38,32,89,81,65,30.42,30.30,20,6,20,0.00
2013-3-16,48,39,32,40,35,30,94,85,71,30.30,30.08,11,3,11,0.03
2013-3-17,44,37,33,41,35,31,95,92,89,30.14,29.98,12,4,12,0.17
2013-3-18,48,40,35,41,38,34,97,91,75,30.03,29.29,18,5,18,0.28
2013-3-19,41,38,35,39,36,33,96,91,84,29.47,29.39,12,4,12,0.22
2013-3-20,47,40,34,42,37,34,96,92,82,29.87,29.47,12,3,12,0.08
2013-3-21,45,41,39,39,38,36,97,87,75,31.18,29.58,29,13,29,0.36
2013-3-22,42,40,38,41,40,37,98,97,97,29.66,29.50,23,8,23,1.55
2013-3-23,40,38,37,38,37,34,98,94,88,29.84,29.65,10,0,10,0.06
2013-3-24,37,36,35,33,31,28,87,80,73,29.88,29.84,20,12,20,0.00
2013-3-25,42,38,35,31,28,26,76,69,60,30.08,29.88,28,12,28,0.00
2013-3-26,41,36,34,33,30,26,88,77,67,30.06,30.01,21,9,21,0.06
2013-3-27,40,36,33,34,31,27,92,83,72,30.01,29.86,15,6,15,0.19
2013-3-28,44,37,32,34,31,27,92,77,65,29.99,29.65,15,6,15,0.08
2013-3-29,42,38,35,29,28,26,70,64,57,29.90,29.65,17,8,17,0.00
2013-3-30,49,41,35,31,28,25,70,60,45,30.05,29.82,13,6,13,0.00
2013-3-31,46,41,39,100,31,27,75,66,59,29.90,29.42,15,8,15,0.00
2013-4-1,43,40,38,31,30,27,71,66,62,29.88,29.79,15,9,15,0.00
2013-4-2,48,41,34,35,31,28,77,67,54,30.17,29.88,17,7,17,0.00
2013-4-3,49,42,35,36,32,29,84,70,55,30.30,30.10,16,7,16,0.00
2013-4-4,49,42,33,36,33,28,83,70,57,30.31,30.15,18,6,18,0.00
2013-4-5,49,41,35,38,33,28,89,73,55,30.25,30.11,15,5,15,0.00
2013-4-6,50,40,29,36,32,25,88,73,54,30.38,30.18,14,3,14,0.00
2013-4-7,50,42,31,40,35,27,92,79,63,30.18,29.78,13,5,13,0.00
2013-4-8,49,44,40,38,36,33,87,75,63,29.77,29.47,24,10,24,0.00
2013-4-9,47,42,37,39,36,34,89,80,71,29.58,29.41,27,9,27,0.00
2013-4-10,50,44,39,46,41,37,93,88,78,29.58,29.44,10,4,10,0.00
2013-4-11,48,45,43,47,43,41,98,95,91,29.44,29.24,14,3,14,0.44
2013-4-12,55,47,41,49,44,41,98,88,69,29.67,29.24,15,4,15,0.03
2013-4-13,54,47,39,50,45,37,97,93,77,29.75,29.41,16,6,16,0.06
2013-4-14,63,56,49,53,49,46,98,79,64,29.60,29.41,29,11,29,0.11
2013-4-15,65,55,49,49,46,44,92,73,47,29.90,29.52,21,10,21,0.03
2013-4-16,62,54,47,46,40,32,83,60,40,29.96,29.50,30,12,30,0.00
2013-4-17,64,53,46,54,47,37,94,79,59,29.90,29.23,38,12,38,0.00
2013-4-18,57,49,44,47,43,40,91,81,65,30.05,29.26,33,14,33,0.19
2013-4-19,59,48,39,47,41,37,93,76,53,30.48,30.05,14,5,14,0.00
2013-4-20,63,51,38,49,41,35,93,71,47,30.52,30.22,15,5,15,0.00
2013-4-21,61,51,46,49,43,40,86,74,57,30.22,29.96,23,7,23,0.03
2013-4-22,65,53,44,54,46,39,90,80,62,29.96,29.83,25,9,25,0.00
2013-4-23,65,56,47,51,48,43,92,75,58,30.22,29.95,20,7,20,0.00
2013-4-24,60,54,46,100,50,44,93,84,73,30.26,30.05,16,6,16,0.14
2013-4-25,58,49,45,47,44,38,96,82,61,30.22,30.08,16,5,16,0.33
2013-4-26,54,47,38,42,37,32,89,70,49,30.16,30.04,28,10,28,0.00
2013-4-27,54,47,39,41,38,34,84,70,56,30.22,30.03,15,6,15,0.00
2013-4-28,60,50,42,48,41,37,86,74,54,30.12,29.85,21,9,21,0.03
2013-4-29,59,49,40,44,39,35,88,69,46,30.22,29.86,24,10,24,0.03
2013-4-30,57,48,38,43,39,35,88,70,54,30.40,30.22,11,4,11,0.00
2013-5-1,61,52,42,49,42,36,85,71,47,30.32,30.21,13,5,13,0.00
2013-5-2,64,53,40,49,44,37,93,72,53,30.30,30.14,14,4,14,0.00
2013-5-3,62,56,50,52,47,45,91,74,61,30.14,29.85,22,9,22,0.06
2013-5-4,62,54,47,51,45,43,91,74,53,30.03,29.78,21,9,21,0.03
2013-5-5,66,59,53,54,50,46,87,74,58,30.13,30.01,18,8,18,0.00
2013-5-6,64,57,51,54,50,47,89,76,67,30.26,30.04,13,4,13,0.03
2013-5-7,62,57,53,51,48,46,81,72,66,30.18,29.73,10,4,10,0.00
2013-5-8,64,54,48,55,49,40,97,83,61,29.70,29.31,21,9,21,0.30
2013-5-9,58,50,47,50,44,39,88,81,69,29.54,29.18,31,12,31,0.17
2013-5-10,60,52,46,53,45,38,95,77,49,29.79,29.54,22,9,22,0.11
2013-5-11,55,50,45,48,43,39,93,78,60,29.94,29.65,26,10,26,0.14
2013-5-12,59,51,44,53,46,39,92,83,75,29.95,29.81,25,8,25,0.06
2013-5-13,53,48,43,44,40,37,85,74,61,29.83,29.69,22,11,22,0.06
2013-5-14,58,49,41,45,41,37,91,75,52,29.69,29.39,14,6,14,0.22
2013-5-15,55,48,42,44,41,38,91,78,59,29.56,29.38,24,9,24,0.03
2013-5-16,52,47,39,47,41,35,90,81,73,29.79,29.43,11,3,11,0.06
2013-5-17,57,50,40,49,43,37,92,78,61,29.97,29.61,12,4,12,0.00
2013-5-18,55,52,50,49,48,40,93,85,65,30.10,29.73,15,6,15,0.03
2013-5-19,62,55,49,53,48,46,93,80,63,30.12,29.77,12,2,12,0.00
2013-5-20,61,56,52,54,50,47,86,82,78,30.15,30.05,16,8,16,0.00
2013-5-21,65,60,51,52,50,46,83,70,61,30.24,29.30,15,8,15,0.00
2013-5-22,58,53,48,50,43,37,89,70,52,30.30,30.19,18,9,18,0.00
2013-5-23,53,48,42,42,38,35,82,69,51,30.19,29.91,24,10,24,0.00
2013-5-24,58,50,44,42,39,36,80,66,50,30.25,29.98,21,9,21,0.00
2013-5-25,60,53,42,48,44,38,86,71,60,30.29,30.18,12,4,12,0.00
2013-5-26,67,58,52,53,49,45,90,74,55,30.22,29.62,17,6,17,0.00
2013-5-27,60,53,50,50,48,44,93,82,62,29.82,29.44,16,6,16,0.28
2013-5-28,59,52,44,50,46,41,91,78,67,29.72,29.48,14,4,14,0.08
2013-5-29,67,58,48,54,50,46,95,76,58,30.04,29.68,16,8,16,0.33
2013-5-30,68,60,50,50,48,44,81,64,50,30.20,29.98,22,8,22,0.00
2013-5-31,62,57,50,54,48,41,85,74,62,30.29,30.15,15,6,15,0.00
2013-6-1,61,55,48,51,46,40,82,71,65,30.41,30.27,16,6,16,0.00
2013-6-2,65,57,51,52,48,42,84,73,61,30.50,30.38,10,4,10,0.00
2013-6-3,68,61,54,58,53,49,88,77,64,30.63,30.49,10,3,10,0.00
2013-6-4,68,60,49,56,50,46,92,73,53,30.53,30.33,9,3,9,0.00
2013-6-5,68,60,50,56,50,47,90,72,57,30.32,30.20,13,4,13,0.00
2013-6-6,66,59,51,55,52,48,91,77,65,30.33,30.17,11,4,11,0.00
2013-6-7,69,61,52,56,52,48,90,72,58,30.41,30.27,12,4,12,0.00
2013-6-8,68,62,52,57,53,47,87,74,66,30.36,30.20,10,3,10,0.00
2013-6-9,70,60,50,56,51,47,90,71,53,30.20,30.03,11,4,11,0.00
2013-6-10,68,60,51,56,51,46,85,73,57,30.03,29.86,18,5,18,0.00
2013-6-11,64,56,52,61,53,50,96,91,82,29.85,29.67,15,7,15,0.17
2013-6-21,69,62,57,100,55,52,87,77,61,30.12,29.63,20,6,17,0.03
2013-6-22,66,52,54,100,60,51,89,67,66,29.69,29.44,23,9,23,0.08
2013-6-23,53,1,53,100,99,47,80,1,80,30.15,29.69,12,5,12,0.00
2013-6-24,65,57,50,50,48,46,89,73,55,30.33,30.14,14,6,14,0.00
2013-6-25,66,60,51,57,53,47,88,77,66,30.49,30.31,6,2,6,0.00
2013-6-26,69,62,54,55,52,48,84,71,53,30.64,29.46,11,5,11,0.00
2013-6-27,65,60,54,62,56,48,92,87,77,30.54,30.27,16,6,16,0.14
2013-6-28,66,62,56,60,57,50,93,86,78,30.29,30.15,21,10,21,0.00
2013-6-29,73,63,54,63,56,49,87,79,67,30.32,30.21,18,8,18,0.00
2013-6-30,68,62,56,60,52,47,84,71,62,30.29,30.05,22,10,22,0.03
2013-7-1,67,62,55,51,49,47,76,62,55,30.17,29.95,14,6,14,0.00
2013-7-2,64,61,57,61,58,48,90,88,71,29.97,29.50,15,7,15,0.22
2013-7-3,57,57,57,54,54,54,90,90,90,29.54,29.54,8,7,8,0.00
2013-7-4,57,57,57,54,54,54,90,90,90,29.54,29.54,6,6,6,0.00
2013-7-5,57,57,57,54,54,54,90,90,90,29.54,29.54,6,6,6,0.00
2013-7-6,70,66,60,60,57,54,88,73,65,30.52,30.41,9,4,9,0.00
2013-7-7,72,68,60,64,61,56,88,78,71,30.70,30.52,7,3,7,0.00
2013-7-8,73,69,63,62,60,57,85,73,66,30.68,30.57,8,3,8,0.00
2013-7-9,80,71,59,63,59,56,91,68,49,30.59,30.46,7,2,7,0.00
2013-7-10,72,67,60,62,60,56,89,78,71,30.49,30.40,10,3,10,0.00
2013-7-11,75,67,59,63,59,56,93,77,63,30.49,30.35,8,2,8,0.00
2013-7-12,77,69,58,64,59,54,90,70,50,30.43,30.17,10,2,10,0.00
2013-7-13,76,69,59,65,61,55,88,76,64,30.49,30.34,9,4,9,0.00
2013-7-14,74,64,57,63,58,54,90,81,67,30.42,30.31,8,3,8,0.00
2013-7-15,70,64,58,59,57,54,90,77,64,30.35,30.27,13,4,13,0.00
2013-7-16,75,66,59,59,57,54,88,73,56,30.37,30.25,10,4,10,0.00
2013-7-17,76,69,64,63,59,55,80,71,59,30.45,30.32,8,2,8,0.00
2013-7-18,71,67,62,61,59,55,84,76,65,30.46,30.39,5,2,5,0.00
2013-7-19,76,70,65,64,62,60,88,77,63,30.66,30.34,9,3,9,0.00
2013-7-20,73,68,64,63,61,60,86,80,71,30.65,30.26,9,4,9,0.00
2013-7-21,67,64,63,60,59,57,86,82,76,30.56,30.09,8,3,8,0.00
2013-7-22,71,67,63,64,62,59,90,86,78,30.45,29.97,12,4,12,0.00
2013-7-23,68,65,64,62,61,59,91,88,80,29.98,29.89,7,2,7,0.00
2013-7-24,73,66,60,65,61,58,93,84,74,29.92,29.85,13,4,13,0.00
2013-7-25,70,64,61,66,61,58,93,90,85,30.47,29.85,8,3,8,0.33
2013-7-26,64,62,59,62,60,57,94,93,91,30.37,29.87,10,2,10,0.69
2013-7-27,70,62,56,64,59,55,95,89,76,30.35,29.66,11,3,11,0.00
2013-7-28,72,64,58,64,60,56,94,86,68,30.29,29.59,12,3,12,0.14
2013-7-29,70,64,60,62,58,54,94,82,71,29.89,29.62,16,5,16,0.17
2013-7-30,60,60,60,55,54,54,83,82,81,29.89,29.87,10,5,10,0.00
2013-7-31,69,67,64,67,64,62,96,91,88,29.76,29.73,16,7,16,0.30
2013-8-1,66,64,62,63,61,61,95,92,88,30.29,29.59,10,5,10,0.06
2013-8-2,65,64,62,62,59,56,96,83,77,30.16,29.57,22,7,22,0.06
2013-8-3,71,66,58,57,55,53,84,68,58,30.04,29.69,20,9,20,0.06
2013-8-10,67,62,59,57,54,51,77,74,70,30.15,30.11,19,7,19,0.00
2013-8-11,68,63,58,55,52,50,80,68,56,30.11,30.05,20,9,20,0.00
2013-8-12,66,61,55,56,52,48,84,72,57,30.19,29.90,23,8,23,0.03
2013-8-13,67,62,57,59,56,48,85,78,72,30.24,29.64,12,3,12,0.03
2013-8-14,73,68,59,64,62,55,89,80,71,30.21,29.66,9,3,9,0.00
2013-8-15,68,66,65,64,63,62,90,89,89,30.05,29.93,12,5,12,0.16
2013-8-16,67,63,59,60,57,55,94,81,72,30.00,29.87,13,3,13,0.00
2013-8-17,74,66,58,66,60,54,88,81,71,29.94,29.58,22,8,22,0.06
2013-8-18,68,63,56,55,53,51,89,70,58,30.03,29.65,16,8,16,0.03
2013-8-19,70,66,60,58,55,52,81,67,56,30.31,30.11,15,7,15,0.00
2013-8-20,70,65,60,57,56,54,82,73,61,30.32,30.01,16,6,16,0.00
2013-8-21,72,68,63,60,59,57,81,73,64,30.22,30.17,13,6,13,0.00
2013-8-22,67,62,59,60,58,56,94,87,77,30.17,29.99,12,5,12,0.00
2013-8-23,65,62,58,62,59,56,94,92,87,29.99,29.89,12,3,12,0.08
2013-8-24,64,61,58,56,54,50,93,77,65,30.13,29.96,9,3,9,0.03
2013-8-25,69,65,58,61,58,54,92,79,70,30.24,29.98,11,5,11,0.00
2013-8-26,67,62,56,58,56,53,89,81,73,30.24,30.12,10,3,10,0.00
2013-8-27,67,62,57,62,58,53,89,87,84,30.30,29.83,8,4,8,0.00
2013-8-28,68,64,60,58,56,52,88,75,65,30.32,29.99,12,4,12,0.00
2013-8-29,72,67,59,61,59,55,86,74,66,30.20,29.60,16,7,16,0.00
2013-8-30,68,60,54,58,53,48,84,79,66,30.27,29.88,20,7,20,0.03
2013-8-31,64,59,51,51,49,46,82,69,59,30.48,30.08,21,7,21,0.00
2013-9-1,66,61,54,54,52,47,80,71,64,30.46,30.37,22,10,22,0.00
2013-9-2,72,66,58,63,60,51,88,79,73,30.44,30.19,17,7,17,0.00
2013-9-3,73,67,60,61,55,52,90,68,54,30.40,30.26,10,4,10,0.00
2013-9-4,65,62,58,54,52,52,81,70,64,30.26,29.96,8,3,8,0.00
2013-9-5,64,59,55,54,47,45,75,64,52,30.00,29.93,8,4,8,0.00
2013-9-6,61,56,51,49,48,46,87,73,57,30.21,29.88,14,6,14,0.00
2013-9-7,54,51,49,48,47,46,92,85,75,30.23,29.79,21,9,21,0.17
2013-9-8,59,55,48,54,50,45,93,84,77,29.99,29.83,12,5,12,0.06
2013-9-9,64,58,48,52,50,44,89,75,65,30.31,29.95,15,7,15,0.00
2013-9-10,64,60,53,52,51,49,86,73,62,30.40,30.24,18,8,18,0.00
2013-9-11,65,61,54,62,58,51,93,91,81,30.36,30.06,15,7,15,0.00
2013-9-12,67,62,56,64,60,53,96,92,87,30.18,30.03,15,5,15,0.06
2013-9-13,59,56,52,53,48,47,91,77,67,30.43,30.07,9,4,9,0.00
2013-9-14,61,56,50,49,47,45,88,72,59,30.38,30.04,10,3,10,0.00
2013-9-15,64,57,48,61,49,41,89,75,53,30.42,29.49,30,13,30,0.00
2013-9-16,53,51,48,44,43,42,81,75,69,30.03,29.55,20,10,20,0.00
2013-9-17,51,51,50,50,50,49,95,95,93,29.95,29.38,7,2,7,0.41
2013-9-18,57,52,50,49,45,44,95,77,68,29.90,29.47,12,5,12,0.00
2013-9-19,60,55,50,50,48,45,82,76,70,29.93,29.81,26,9,26,0.17
2013-9-20,62,56,53,50,48,46,84,77,65,30.10,29.93,11,2,11,0.00
2013-9-21,74,68,54,65,61,49,92,80,71,30.30,30.07,18,5,18,0.00
2013-9-22,65,64,63,61,60,59,86,85,85,30.30,30.29,7,4,7,0.00
2013-9-23,62,61,60,59,58,57,93,92,89,30.23,30.12,12,5,12,0.00
2013-9-24,64,60,58,59,57,56,95,91,84,30.12,29.95,8,4,8,0.00
2013-9-25,59,59,58,57,57,56,96,93,93,30.10,29.90,7,3,7,0.03
2013-9-26,58,58,56,57,56,55,97,96,95,30.14,29.96,10,4,10,0.11
2013-9-27,62,59,57,57,56,55,97,89,83,30.00,29.58,8,2,11,0.00
2013-9-28,63,57,56,58,55,55,95,93,83,29.94,29.79,9,3,9,0.00
2013-9-29,58,58,58,56,56,55,93,92,92,29.79,29.78,2,1,2,0.00
2013-10-3,62,60,59,61,59,58,98,97,97,30.07,29.55,13,4,13,0.50
2013-10-4,62,59,55,59,57,53,97,92,88,30.40,29.58,12,4,12,0.06
2013-10-5,66,60,55,58,54,50,94,80,73,30.23,29.98,10,5,10,0.00
2013-10-6,56,56,55,50,50,49,81,79,78,30.21,30.19,6,3,6,0.00
2013-10-7,68,64,62,61,59,59,89,83,78,30.16,29.90,21,9,21,0.00
2013-10-8,62,58,56,59,54,52,90,85,80,30.35,29.99,14,5,14,0.00
2013-10-9,56,48,45,52,42,39,87,81,72,30.34,29.92,18,8,18,0.00
2013-10-10,54,50,47,43,41,40,79,70,60,30.40,29.85,12,6,12,0.00
2013-10-11,50,48,47,42,42,41,79,78,77,30.37,29.76,12,6,12,0.00
2013-10-12,56,55,52,53,51,47,91,87,81,30.38,30.19,10,4,10,0.00
2013-10-13,54,52,51,52,48,46,91,84,77,30.21,29.97,11,5,11,0.00
2013-10-14,53,51,48,48,46,44,89,84,78,29.97,29.89,8,4,8,0.00
2013-10-15,56,51,44,52,48,42,95,91,84,29.96,29.65,8,4,8,0.00
2013-10-16,55,52,51,54,51,50,96,95,93,29.88,29.56,13,5,13,0.80
2013-10-17,56,53,51,54,51,49,97,94,89,30.22,29.73,9,2,9,0.00
2013-10-18,57,56,55,56,55,54,98,97,97,30.19,29.48,15,6,15,0.44
2013-10-19,59,56,52,59,55,50,99,96,91,30.15,29.44,13,3,13,0.11
2013-10-20,61,56,52,56,53,50,97,89,78,29.56,29.30,20,7,20,0.03
2013-10-21,61,59,52,60,58,50,98,96,92,29.57,29.24,28,7,28,0.36
2013-10-22,62,58,56,60,56,55,97,94,86,30.40,29.07,18,4,18,0.08
2013-10-23,56,49,43,55,45,41,96,86,79,30.40,29.07,21,4,21,0.03
2013-10-24,57,52,42,54,50,40,96,92,89,29.77,29.66,13,6,13,0.17
2013-10-25,58,56,55,57,55,54,98,96,94,29.66,29.37,13,4,13,0.56
2013-10-26,56,52,49,54,50,47,96,91,80,29.94,29.20,22,7,22,0.14
2013-10-27,58,54,50,52,49,46,90,85,78,29.20,29.02,30,10,30,0.06
2013-10-28,55,50,47,48,46,44,91,84,72,29.57,29.06,22,10,22,0.00
2013-10-29,47,44,43,44,41,40,91,89,87,29.98,29.56,15,5,15,0.00
2013-10-30,59,52,42,55,48,39,93,88,79,29.99,29.72,22,6,22,0.03
2013-10-31,57,50,46,50,46,44,93,86,75,29.93,29.75,21,7,21,0.00
2013-11-1,52,45,39,47,42,38,95,89,77,29.76,29.55,11,2,11,0.00
2013-11-2,52,45,36,47,42,34,97,89,78,29.55,28.96,34,10,34,0.06
2013-11-3,50,44,42,44,41,38,93,87,76,29.50,29.23,22,7,22,0.03
2013-11-4,48,42,35,43,38,33,93,87,80,29.42,29.22,12,4,12,0.00
2013-11-5,45,45,45,43,43,43,92,92,91,29.24,29.22,4,4,4,0.00
2013-11-6,46,45,42,45,43,40,95,94,93,29.52,29.37,18,5,18,0.06
2013-11-7,48,46,42,43,42,40,94,86,83,29.59,29.29,13,6,13,0.03
2013-11-8,45,45,45,41,41,41,87,87,87,29.59,29.59,5,4,5,0.00
2013-11-9,47,45,41,43,41,39,93,88,83,29.69,29.25,13,6,13,0.00
2013-11-10,51,46,38,50,43,36,97,89,77,30.07,29.69,21,5,21,0.20
2013-11-11,53,52,50,51,49,48,97,91,89,30.16,29.88,21,5,21,0.27
2013-11-12,50,46,41,48,43,39,95,89,76,30.50,29.87,14,6,14,0.00
2013-11-13,50,47,39,47,44,37,92,89,86,30.48,29.63,23,10,23,0.03
2013-11-14,47,46,45,43,41,41,87,83,79,30.52,30.10,21,7,21,0.00
2013-11-15,51,48,45,48,44,41,88,86,84,30.55,30.48,12,5,12,0.00
2013-11-16,53,51,50,49,48,46,94,88,83,30.49,30.36,12,6,12,0.00
2013-11-17,55,53,51,54,51,49,97,95,93,30.37,29.28,7,3,7,0.06
2013-11-18,42,39,37,38,36,34,92,90,84,29.89,29.37,12,6,12,0.17
2013-11-19,37,37,36,34,34,34,91,91,91,29.88,29.87,7,6,7,0.00
2013-11-21,40,40,40,34,34,33,81,79,78,29.68,29.65,27,5,27,0.00
2013-11-22,44,38,35,39,35,32,91,87,81,29.65,29.65,7,3,7,0.00
2013-11-23,45,42,33,43,40,30,94,92,88,29.65,29.65,10,4,10,0.00
2013-11-24,47,45,44,44,43,40,95,90,86,29.65,29.65,12,3,12,0.00
2013-11-25,47,44,30,41,40,-20,90,84,10,31.82,29.65,8,3,8,0.00
2013-11-26,44,44,44,41,41,41,88,88,88,30.17,30.17,4,4,0,0.00
2013-11-27,44,44,44,41,41,41,88,88,88,30.17,30.17,4,4,0,0.00
2013-11-28,30,30,30,-20,-20,-20,10,10,10,30.99,30.99,4,4,0,0.00
2013-11-29,30,30,30,-20,-20,-20,10,10,10,30.99,30.99,4,4,0,0.00
2013-11-30,30,30,30,-20,-20,-20,10,10,10,30.99,30.99,4,4,0,0.00
2013-12-1,30,30,30,-20,-20,-20,10,10,10,30.99,30.99,4,4,0,0.00
2013-12-2,30,30,30,-20,-20,-20,10,10,10,30.99,30.99,4,4,0,0.00
2013-12-3,30,30,30,-20,-20,-20,10,10,10,30.99,30.99,4,4,0,0.00
2013-12-4,30,30,30,-20,-20,-20,10,10,10,30.99,30.99,4,4,0,0.00
2013-12-5,30,30,30,-20,-20,-20,10,10,10,30.99,30.99,4,4,0,0.00
2013-12-9,30,30,30,-20,-20,-20,10,10,10,30.99,30.99,4,4,0,0.00
2013-12-11,30,30,30,-20,-20,-20,10,10,10,30.99,30.99,4,4,0,0.00
2013-12-12,30,30,30,-20,-20,-20,10,10,10,30.99,30.99,4,0,0,0.00
2013-12-13,30,30,30,-20,-20,-20,10,10,10,30.99,30.99,0,0,0,0.00
2013-12-14,30,30,30,-20,-20,-20,10,10,10,30.99,30.99,0,0,0,0.00
2013-12-15,30,30,30,-20,-20,-20,10,10,10,30.99,30.99,0,0,0,0.00
2013-12-19,40,38,37,36,35,34,92,89,84,31.87,31.80,9,7,22,0.03
2013-12-20,53,49,47,50,44,42,90,84,80,29.52,29.42,10,8,24,0.05
2013-12-21,50,44,40,45,40,37,96,87,78,29.49,29.28,8,6,25,0.22
2013-12-22,40,33,30,36,-3,-20,93,35,10,30.99,29.34,8,2,17,0.08
2013-12-23,53,39,30,50,14,-20,96,53,10,30.99,28.32,9,5,23,0.11
2013-12-24,44,35,30,38,8,-20,93,45,10,30.99,28.34,13,6,40,0.05
2013-12-25,43,33,30,40,9,-20,96,54,10,30.99,28.58,4,2,13,0.00
2013-12-26,47,39,29,46,37,28,97,93,85,29.28,28.39,14,5,30,0.31
2013-12-27,47,44,39,44,40,37,92,87,79,28.89,28.24,14,11,36,0.05
2013-12-28,42,38,36,39,36,34,95,92,88,29.49,28.90,8,5,17,0.00
2013-12-29,52,41,33,48,39,32,94,91,86,29.79,29.40,8,5,18,0.03
2013-12-30,52,44,39,49,43,38,97,95,90,29.54,29.17,8,5,18,0.36
2013-12-31,48,44,41,46,41,37,96,90,82,29.33,29.09,10,6,26,0.17
2014-1-1,50,43,39,49,42,36,98,95,89,29.13,28.51,10,5,22,0.31
2014-1-2,48,44,40,47,41,39,97,90,82,29.11,28.75,7,5,20,0.05